contact:dominique.lefevre@mio.osupytheas.fr, maurice.libes@osupytheas.fr, didier.mallarino@osupytheas.fr
Project:EMSO http://www.emso-fr.org/EMSO-France
Depth: 2436.0 m
Title:EMSO Ligure Ouest : Data MII capteur MICROCAT
DateTime_Computer,Latitude,Longitude,Temperature,Conductivity,Pressure,DateTime_Instrument
DateTime_Computer,Latitude,Longitude,degC,S m-1,dbar,DateTime_Instrument
2019-11-12T00:02:55Z,42.805,6.029,13.2967,4.60010,2469.844,2019-11-12T02:03:23Z
2019-11-12T00:05:59Z,42.805,6.029,13.2961,4.60006,2469.83,2019-11-12T02:06:26Z
2019-11-12T00:09:02Z,42.805,6.029,13.2968,4.59988,2469.83,2019-11-12T02:09:29Z
2019-11-12T00:12:05Z,42.805,6.029,13.2964,4.59977,2469.867,2019-11-12T02:12:32Z
2019-11-12T00:15:08Z,42.805,6.029,13.2964,4.59971,2469.821,2019-11-12T02:15:36Z
2019-11-12T00:18:11Z,42.805,6.029,13.2961,4.59971,2469.83,2019-11-12T02:18:39Z
2019-11-12T00:21:15Z,42.805,6.029,13.2966,4.59971,2469.806,2019-11-12T02:21:42Z
2019-11-12T00:24:18Z,42.805,6.029,13.2963,4.59978,2469.844,2019-11-12T02:24:45Z
2019-11-12T00:27:21Z,42.805,6.029,13.2961,4.59981,2469.844,2019-11-12T02:27:49Z
2019-11-12T00:30:24Z,42.805,6.029,13.2963,4.59973,2469.83,2019-11-12T02:30:52Z
2019-11-12T00:33:28Z,42.805,6.029,13.2964,4.59977,2469.821,2019-11-12T02:33:55Z
2019-11-12T00:36:31Z,42.805,6.029,13.2966,4.59978,2469.83,2019-11-12T02:36:58Z
2019-11-12T00:39:34Z,42.805,6.029,13.2967,4.59983,2469.83,2019-11-12T02:40:02Z
2019-11-12T00:42:37Z,42.805,6.029,13.2983,4.60006,2469.821,2019-11-12T02:43:05Z
2019-11-12T00:45:41Z,42.805,6.029,13.2978,4.59992,2469.821,2019-11-12T02:46:08Z
2019-11-12T00:48:44Z,42.805,6.029,13.2965,4.60004,2469.783,2019-11-12T02:49:11Z
2019-11-12T00:51:47Z,42.805,6.029,13.2964,4.59997,2469.83,2019-11-12T02:52:14Z
2019-11-12T00:54:50Z,42.805,6.029,13.2962,4.59979,2469.844,2019-11-12T02:55:18Z
2019-11-12T00:57:53Z,42.805,6.029,13.2961,4.59973,2469.83,2019-11-12T02:58:21Z
2019-11-12T01:00:57Z,42.805,6.029,13.2963,4.59971,2469.844,2019-11-12T03:01:24Z
2019-11-12T01:04:00Z,42.805,6.029,13.2966,4.59976,2469.783,2019-11-12T03:04:27Z
2019-11-12T01:07:03Z,42.805,6.029,13.2961,4.59973,2469.806,2019-11-12T03:07:30Z
2019-11-12T01:10:06Z,42.805,6.029,13.2962,4.59968,2469.821,2019-11-12T03:10:34Z
2019-11-12T01:13:09Z,42.805,6.029,13.2964,4.59968,2469.83,2019-11-12T03:13:37Z
2019-11-12T01:16:13Z,42.805,6.029,13.2963,4.59973,2469.806,2019-11-12T03:16:40Z
2019-11-12T01:19:16Z,42.805,6.029,13.2961,4.59973,2469.806,2019-11-12T03:19:43Z
2019-11-12T01:22:19Z,42.805,6.029,13.2961,4.59971,2469.83,2019-11-12T03:22:47Z
2019-11-12T01:25:22Z,42.805,6.029,13.2965,4.59969,2469.806,2019-11-12T03:25:50Z
2019-11-12T01:28:26Z,42.805,6.029,13.2964,4.59966,2469.844,2019-11-12T03:28:53Z
2019-11-12T01:31:29Z,42.805,6.029,13.2963,4.59969,2469.83,2019-11-12T03:31:56Z
2019-11-12T01:34:32Z,42.805,6.029,13.2962,4.59970,2469.806,2019-11-12T03:35:00Z
2019-11-12T01:37:35Z,42.805,6.029,13.2965,4.59970,2469.783,2019-11-12T03:38:03Z
2019-11-12T01:40:39Z,42.805,6.029,13.2961,4.59967,2469.806,2019-11-12T03:41:06Z
2019-11-12T01:43:42Z,42.805,6.029,13.2964,4.59964,2469.844,2019-11-12T03:44:09Z
2019-11-12T01:46:45Z,42.805,6.029,13.2959,4.59967,2469.806,2019-11-12T03:47:13Z
2019-11-12T01:49:48Z,42.805,6.029,13.2961,4.59967,2469.783,2019-11-12T03:50:16Z
2019-11-12T01:52:52Z,42.805,6.029,13.2963,4.59966,2469.773,2019-11-12T03:53:19Z
2019-11-12T01:55:55Z,42.805,6.029,13.2962,4.59966,2469.83,2019-11-12T03:56:22Z
2019-11-12T01:58:58Z,42.805,6.029,13.2963,4.59967,2469.806,2019-11-12T03:59:26Z
2019-11-12T02:02:01Z,42.805,6.029,13.2961,4.59970,2469.797,2019-11-12T04:02:29Z
2019-11-12T02:05:05Z,42.805,6.029,13.2963,4.59966,2469.806,2019-11-12T04:05:32Z
2019-11-12T02:08:08Z,42.805,6.029,13.2964,4.59966,2469.83,2019-11-12T04:08:35Z
2019-11-12T02:11:11Z,42.805,6.029,13.2965,4.59967,2469.844,2019-11-12T04:11:39Z
2019-11-12T02:14:14Z,42.805,6.029,13.2962,4.59966,2469.853,2019-11-12T04:14:42Z
2019-11-12T02:17:18Z,42.805,6.029,13.2963,4.59964,2469.844,2019-11-12T04:17:45Z
2019-11-12T02:20:21Z,42.805,6.029,13.2963,4.59964,2469.83,2019-11-12T04:20:48Z
2019-11-12T02:23:24Z,42.805,6.029,13.2961,4.59964,2469.821,2019-11-12T04:23:52Z
2019-11-12T02:26:27Z,42.805,6.029,13.2963,4.59964,2469.844,2019-11-12T04:26:55Z
2019-11-12T02:29:31Z,42.805,6.029,13.2965,4.59963,2469.783,2019-11-12T04:29:58Z
2019-11-12T02:32:34Z,42.805,6.029,13.2965,4.59963,2469.821,2019-11-12T04:33:01Z
2019-11-12T02:35:37Z,42.805,6.029,13.2962,4.59965,2469.806,2019-11-12T04:36:04Z
2019-11-12T02:38:40Z,42.805,6.029,13.2961,4.59966,2469.806,2019-11-12T04:39:08Z
2019-11-12T02:41:43Z,42.805,6.029,13.2963,4.59966,2469.876,2019-11-12T04:42:11Z
2019-11-12T02:44:47Z,42.805,6.029,13.2960,4.59966,2469.821,2019-11-12T04:45:14Z
2019-11-12T02:47:50Z,42.805,6.029,13.2962,4.59966,2469.853,2019-11-12T04:48:17Z
2019-11-12T02:50:53Z,42.805,6.029,13.2964,4.59965,2469.844,2019-11-12T04:51:21Z
2019-11-12T02:53:56Z,42.805,6.029,13.2963,4.59966,2469.844,2019-11-12T04:54:24Z
2019-11-12T02:57:00Z,42.805,6.029,13.2964,4.59966,2469.806,2019-11-12T04:57:27Z
2019-11-12T03:00:03Z,42.805,6.029,13.2962,4.59966,2469.83,2019-11-12T05:00:30Z
2019-11-12T03:03:06Z,42.805,6.029,13.2966,4.59966,2469.83,2019-11-12T05:03:34Z
2019-11-12T03:06:09Z,42.805,6.029,13.2965,4.59966,2469.83,2019-11-12T05:06:37Z
2019-11-12T03:09:13Z,42.805,6.029,13.2964,4.59966,2469.853,2019-11-12T05:09:40Z
2019-11-12T03:12:16Z,42.805,6.029,13.2967,4.59966,2469.83,2019-11-12T05:12:44Z
2019-11-12T03:15:19Z,42.805,6.029,13.2962,4.59964,2469.876,2019-11-12T05:15:47Z
2019-11-12T03:18:23Z,42.805,6.029,13.2964,4.59966,2469.844,2019-11-12T05:18:50Z
2019-11-12T03:21:26Z,42.805,6.029,13.2967,4.59963,2469.853,2019-11-12T05:21:53Z
2019-11-12T03:24:29Z,42.805,6.029,13.2961,4.59964,2469.844,2019-11-12T05:24:57Z
2019-11-12T03:27:32Z,42.805,6.029,13.2962,4.59964,2469.89,2019-11-12T05:28:00Z
2019-11-12T03:30:36Z,42.805,6.029,13.2963,4.59966,2469.89,2019-11-12T05:31:03Z
2019-11-12T03:33:39Z,42.805,6.029,13.2966,4.59963,2469.89,2019-11-12T05:34:06Z
2019-11-12T03:36:42Z,42.805,6.029,13.2961,4.59964,2469.853,2019-11-12T05:37:09Z
2019-11-12T03:39:45Z,42.805,6.029,13.2960,4.59964,2469.876,2019-11-12T05:40:13Z
2019-11-12T03:42:48Z,42.805,6.029,13.2964,4.59963,2469.9,2019-11-12T05:43:16Z
2019-11-12T03:45:52Z,42.805,6.029,13.2966,4.59964,2469.844,2019-11-12T05:46:19Z
2019-11-12T03:48:55Z,42.805,6.029,13.2961,4.59964,2469.89,2019-11-12T05:49:22Z
2019-11-12T03:51:58Z,42.805,6.029,13.2964,4.59964,2469.914,2019-11-12T05:52:26Z
2019-11-12T03:55:02Z,42.805,6.029,13.2962,4.59964,2469.876,2019-11-12T05:55:29Z
2019-11-12T03:58:05Z,42.805,6.029,13.2964,4.59966,2469.9,2019-11-12T05:58:33Z
2019-11-12T04:01:09Z,42.805,6.029,13.2962,4.59965,2469.876,2019-11-12T06:01:36Z
2019-11-12T04:04:12Z,42.805,6.029,13.2963,4.59965,2469.914,2019-11-12T06:04:40Z
2019-11-12T04:07:15Z,42.805,6.029,13.2960,4.59964,2469.9,2019-11-12T06:07:43Z
2019-11-12T04:10:19Z,42.805,6.029,13.2965,4.59964,2469.9,2019-11-12T06:10:46Z
2019-11-12T04:13:22Z,42.805,6.029,13.2964,4.59964,2469.914,2019-11-12T06:13:49Z
2019-11-12T04:16:25Z,42.805,6.029,13.2967,4.59963,2469.876,2019-11-12T06:16:52Z
2019-11-12T04:19:28Z,42.805,6.029,13.2963,4.59964,2469.867,2019-11-12T06:19:56Z
2019-11-12T04:22:32Z,42.805,6.029,13.2961,4.59964,2469.876,2019-11-12T06:22:59Z
2019-11-12T04:25:35Z,42.805,6.029,13.2965,4.59966,2469.9,2019-11-12T06:26:02Z
2019-11-12T04:28:38Z,42.805,6.029,13.2961,4.59964,2469.937,2019-11-12T06:29:06Z
2019-11-12T04:31:41Z,42.805,6.029,13.2967,4.59965,2469.876,2019-11-12T06:32:09Z
2019-11-12T04:34:45Z,42.805,6.029,13.2960,4.59965,2469.923,2019-11-12T06:35:12Z
2019-11-12T04:37:48Z,42.805,6.029,13.2961,4.59964,2469.914,2019-11-12T06:38:15Z
2019-11-12T04:40:51Z,42.805,6.029,13.2961,4.59964,2469.9,2019-11-12T06:41:18Z
2019-11-12T04:43:54Z,42.805,6.029,13.2964,4.59962,2469.96,2019-11-12T06:44:22Z
2019-11-12T04:46:57Z,42.805,6.029,13.2964,4.59964,2469.9,2019-11-12T06:47:25Z
2019-11-12T04:50:01Z,42.805,6.029,13.2961,4.59964,2469.9,2019-11-12T06:50:28Z
2019-11-12T04:53:04Z,42.805,6.029,13.2966,4.59963,2469.947,2019-11-12T06:53:31Z
2019-11-12T04:56:07Z,42.805,6.029,13.2961,4.59966,2469.923,2019-11-12T06:56:35Z
2019-11-12T04:59:10Z,42.805,6.029,13.2963,4.59964,2469.9,2019-11-12T06:59:38Z
2019-11-12T05:02:14Z,42.805,6.029,13.2967,4.59964,2469.947,2019-11-12T07:02:41Z
2019-11-12T05:05:17Z,42.805,6.029,13.2962,4.59966,2469.96,2019-11-12T07:05:45Z
2019-11-12T05:08:20Z,42.805,6.029,13.2961,4.59965,2469.9,2019-11-12T07:08:48Z
2019-11-12T05:11:24Z,42.805,6.029,13.2962,4.59964,2469.984,2019-11-12T07:11:51Z
2019-11-12T05:14:27Z,42.805,6.029,13.2968,4.59963,2469.96,2019-11-12T07:14:54Z
2019-11-12T05:17:30Z,42.805,6.029,13.2963,4.59965,2469.96,2019-11-12T07:17:58Z
2019-11-12T05:20:33Z,42.805,6.029,13.2968,4.59964,2469.923,2019-11-12T07:21:01Z
2019-11-12T05:23:37Z,42.805,6.029,13.2961,4.59964,2469.947,2019-11-12T07:24:04Z
2019-11-12T05:26:40Z,42.805,6.029,13.2961,4.59964,2469.96,2019-11-12T07:27:07Z
2019-11-12T05:29:43Z,42.805,6.029,13.2965,4.59964,2469.96,2019-11-12T07:30:10Z
2019-11-12T05:32:46Z,42.805,6.029,13.2964,4.59966,2469.96,2019-11-12T07:33:14Z
2019-11-12T05:35:49Z,42.805,6.029,13.2963,4.59964,2469.97,2019-11-12T07:36:17Z
2019-11-12T05:38:53Z,42.805,6.029,13.2964,4.59964,2469.947,2019-11-12T07:39:20Z
2019-11-12T05:41:56Z,42.805,6.029,13.2964,4.59965,2469.984,2019-11-12T07:42:23Z
2019-11-12T05:44:59Z,42.805,6.029,13.2963,4.59964,2469.97,2019-11-12T07:45:27Z
2019-11-12T05:48:02Z,42.805,6.029,13.2962,4.59964,2469.984,2019-11-12T07:48:30Z
2019-11-12T05:51:05Z,42.805,6.029,13.2963,4.59964,2469.993,2019-11-12T07:51:33Z
2019-11-12T05:54:09Z,42.805,6.029,13.2965,4.59964,2470.007,2019-11-12T07:54:36Z
2019-11-12T05:57:12Z,42.805,6.029,13.2961,4.59965,2470.007,2019-11-12T07:57:39Z
2019-11-12T06:00:15Z,42.805,6.029,13.2962,4.59966,2469.97,2019-11-12T08:00:43Z
2019-11-12T06:03:18Z,42.805,6.029,13.2964,4.59965,2469.96,2019-11-12T08:03:46Z
2019-11-12T06:06:22Z,42.805,6.029,13.2966,4.59966,2470.007,2019-11-12T08:06:49Z
2019-11-12T06:09:25Z,42.805,6.029,13.2964,4.59964,2470.007,2019-11-12T08:09:52Z
2019-11-12T06:12:28Z,42.805,6.029,13.2965,4.59966,2470.017,2019-11-12T08:12:55Z
2019-11-12T06:15:31Z,42.805,6.029,13.2962,4.59967,2469.984,2019-11-12T08:15:59Z
2019-11-12T06:18:34Z,42.805,6.029,13.2961,4.59964,2470.017,2019-11-12T08:19:02Z
2019-11-12T06:21:38Z,42.805,6.029,13.2964,4.59964,2470.007,2019-11-12T08:22:05Z
2019-11-12T06:24:41Z,42.805,6.029,13.2964,4.59966,2469.947,2019-11-12T08:25:08Z
2019-11-12T06:27:44Z,42.805,6.029,13.2963,4.59964,2469.97,2019-11-12T08:28:12Z
2019-11-12T06:30:47Z,42.805,6.029,13.2964,4.59966,2469.97,2019-11-12T08:31:15Z
2019-11-12T06:33:51Z,42.805,6.029,13.2964,4.59965,2469.984,2019-11-12T08:34:18Z
2019-11-12T06:36:54Z,42.805,6.029,13.2963,4.59964,2469.984,2019-11-12T08:37:21Z
2019-11-12T06:39:58Z,42.805,6.029,13.2963,4.59964,2470.007,2019-11-12T08:40:25Z
2019-11-12T06:43:01Z,42.805,6.029,13.2966,4.59964,2469.993,2019-11-12T08:43:28Z
2019-11-12T06:46:04Z,42.805,6.029,13.2964,4.59964,2469.993,2019-11-12T08:46:31Z
2019-11-12T06:49:07Z,42.805,6.029,13.2960,4.59963,2470.007,2019-11-12T08:49:35Z
2019-11-12T06:52:10Z,42.805,6.029,13.2961,4.59966,2469.993,2019-11-12T08:52:38Z
2019-11-12T06:55:14Z,42.805,6.029,13.2964,4.59966,2469.984,2019-11-12T08:55:41Z
2019-11-12T06:58:17Z,42.805,6.029,13.2959,4.59965,2470.007,2019-11-12T08:58:44Z
2019-11-12T07:01:20Z,42.805,6.029,13.2964,4.59966,2470.017,2019-11-12T09:01:48Z
2019-11-12T07:04:23Z,42.805,6.029,13.2963,4.59965,2469.993,2019-11-12T09:04:51Z
2019-11-12T07:07:27Z,42.805,6.029,13.2966,4.59963,2469.993,2019-11-12T09:07:54Z
2019-11-12T07:10:30Z,42.805,6.029,13.2960,4.59966,2470.007,2019-11-12T09:10:57Z
2019-11-12T07:13:33Z,42.805,6.029,13.2964,4.59966,2470.017,2019-11-12T09:14:00Z
2019-11-12T07:16:36Z,42.805,6.029,13.2965,4.59965,2470.017,2019-11-12T09:17:04Z
2019-11-12T07:19:39Z,42.805,6.029,13.2962,4.59964,2469.993,2019-11-12T09:20:07Z
2019-11-12T07:22:43Z,42.805,6.029,13.2965,4.59966,2469.993,2019-11-12T09:23:10Z
2019-11-12T07:25:46Z,42.805,6.029,13.2966,4.59964,2470.017,2019-11-12T09:26:13Z
2019-11-12T07:28:49Z,42.805,6.029,13.2963,4.59964,2469.993,2019-11-12T09:29:17Z
2019-11-12T07:31:52Z,42.805,6.029,13.2964,4.59965,2470.03,2019-11-12T09:32:20Z
2019-11-12T07:34:55Z,42.805,6.029,13.2966,4.59966,2469.97,2019-11-12T09:35:23Z
2019-11-12T07:37:59Z,42.805,6.029,13.2959,4.59967,2469.993,2019-11-12T09:38:26Z
2019-11-12T07:41:02Z,42.805,6.029,13.2964,4.59964,2470.053,2019-11-12T09:41:30Z
2019-11-12T07:44:05Z,42.805,6.029,13.2965,4.59965,2470.007,2019-11-12T09:44:33Z
2019-11-12T07:47:08Z,42.805,6.029,13.2966,4.59964,2470.017,2019-11-12T09:47:36Z
2019-11-12T07:50:12Z,42.805,6.029,13.2961,4.59965,2470.04,2019-11-12T09:50:39Z
2019-11-12T07:53:15Z,42.805,6.029,13.2963,4.59966,2469.97,2019-11-12T09:53:42Z
2019-11-12T07:56:18Z,42.805,6.029,13.2963,4.59963,2470.007,2019-11-12T09:56:46Z
2019-11-12T07:59:21Z,42.805,6.029,13.2966,4.59966,2469.984,2019-11-12T09:59:49Z
2019-11-12T08:02:25Z,42.805,6.029,13.2964,4.59966,2470.017,2019-11-12T10:02:52Z
2019-11-12T08:05:28Z,42.805,6.029,13.2962,4.59964,2470.007,2019-11-12T10:05:55Z
2019-11-12T08:08:31Z,42.805,6.029,13.2965,4.59966,2469.993,2019-11-12T10:08:59Z
2019-11-12T08:11:35Z,42.805,6.029,13.2960,4.59966,2469.97,2019-11-12T10:12:02Z
2019-11-12T08:14:38Z,42.805,6.029,13.2962,4.59965,2470.007,2019-11-12T10:15:06Z
2019-11-12T08:17:41Z,42.805,6.029,13.2963,4.59966,2469.993,2019-11-12T10:18:09Z
2019-11-12T08:20:45Z,42.805,6.029,13.2961,4.59964,2469.993,2019-11-12T10:21:12Z
2019-11-12T08:23:48Z,42.805,6.029,13.2965,4.59964,2469.993,2019-11-12T10:24:15Z
2019-11-12T08:26:51Z,42.805,6.029,13.2964,4.59964,2469.97,2019-11-12T10:27:19Z
2019-11-12T08:29:54Z,42.805,6.029,13.2961,4.59964,2469.993,2019-11-12T10:30:22Z
2019-11-12T08:32:57Z,42.805,6.029,13.2964,4.59964,2469.97,2019-11-12T10:33:25Z
2019-11-12T08:36:01Z,42.805,6.029,13.2965,4.59963,2470.007,2019-11-12T10:36:28Z
2019-11-12T08:39:04Z,42.805,6.029,13.2966,4.59966,2469.97,2019-11-12T10:39:32Z
2019-11-12T08:42:07Z,42.805,6.029,13.2963,4.59963,2469.984,2019-11-12T10:42:35Z
2019-11-12T08:45:10Z,42.805,6.029,13.2967,4.59963,2469.947,2019-11-12T10:45:38Z
2019-11-12T08:48:14Z,42.805,6.029,13.2962,4.59966,2469.96,2019-11-12T10:48:41Z
2019-11-12T08:51:17Z,42.805,6.029,13.2964,4.59963,2469.97,2019-11-12T10:51:44Z
2019-11-12T08:54:20Z,42.805,6.029,13.2962,4.59964,2469.96,2019-11-12T10:54:48Z
2019-11-12T08:57:23Z,42.805,6.029,13.2963,4.59963,2469.947,2019-11-12T10:57:51Z
2019-11-12T09:00:27Z,42.805,6.029,13.2964,4.59964,2469.993,2019-11-12T11:00:54Z
2019-11-12T09:03:30Z,42.805,6.029,13.2961,4.59963,2469.984,2019-11-12T11:03:57Z
2019-11-12T09:06:33Z,42.805,6.029,13.2964,4.59963,2469.923,2019-11-12T11:07:01Z
2019-11-12T09:09:36Z,42.805,6.029,13.2968,4.59963,2469.984,2019-11-12T11:10:04Z
2019-11-12T09:12:39Z,42.805,6.029,13.2963,4.59964,2469.984,2019-11-12T11:13:07Z
2019-11-12T09:15:43Z,42.805,6.029,13.2961,4.59965,2469.947,2019-11-12T11:16:10Z
2019-11-12T09:18:46Z,42.805,6.029,13.2961,4.59964,2469.96,2019-11-12T11:19:13Z
2019-11-12T09:21:49Z,42.805,6.029,13.2962,4.59963,2469.96,2019-11-12T11:22:17Z
2019-11-12T09:24:52Z,42.805,6.029,13.2965,4.59963,2469.937,2019-11-12T11:25:20Z
2019-11-12T09:27:56Z,42.805,6.029,13.2961,4.59963,2469.947,2019-11-12T11:28:23Z
2019-11-12T09:30:59Z,42.805,6.029,13.2964,4.59964,2469.923,2019-11-12T11:31:26Z
2019-11-12T09:34:02Z,42.805,6.029,13.2964,4.59963,2469.923,2019-11-12T11:34:30Z
2019-11-12T09:37:05Z,42.805,6.029,13.2964,4.59964,2469.937,2019-11-12T11:37:33Z
2019-11-12T09:40:09Z,42.805,6.029,13.2961,4.59963,2469.923,2019-11-12T11:40:36Z
2019-11-12T09:43:12Z,42.805,6.029,13.2967,4.59962,2469.937,2019-11-12T11:43:39Z
2019-11-12T09:46:15Z,42.805,6.029,13.2966,4.59963,2469.937,2019-11-12T11:46:43Z
2019-11-12T09:49:18Z,42.805,6.029,13.2962,4.59963,2469.937,2019-11-12T11:49:46Z
2019-11-12T09:52:22Z,42.805,6.029,13.2965,4.59963,2469.947,2019-11-12T11:52:49Z
2019-11-12T09:55:25Z,42.805,6.029,13.2964,4.59965,2469.923,2019-11-12T11:55:52Z
2019-11-12T09:58:28Z,42.805,6.029,13.2963,4.59963,2469.9,2019-11-12T11:58:55Z
2019-11-12T10:01:31Z,42.805,6.029,13.2967,4.59963,2469.937,2019-11-12T12:01:59Z
2019-11-12T10:04:34Z,42.805,6.029,13.2966,4.59963,2469.937,2019-11-12T12:05:02Z
2019-11-12T10:07:38Z,42.805,6.029,13.2965,4.59962,2469.937,2019-11-12T12:08:05Z
2019-11-12T10:10:41Z,42.805,6.029,13.2961,4.59964,2469.9,2019-11-12T12:11:08Z
2019-11-12T10:13:44Z,42.805,6.029,13.2964,4.59962,2469.9,2019-11-12T12:14:12Z
2019-11-12T10:16:47Z,42.805,6.029,13.2963,4.59963,2469.923,2019-11-12T12:17:15Z
2019-11-12T10:19:50Z,42.805,6.029,13.2962,4.59964,2469.89,2019-11-12T12:20:18Z
2019-11-12T10:22:54Z,42.805,6.029,13.2965,4.59966,2469.914,2019-11-12T12:23:21Z
2019-11-12T10:25:57Z,42.805,6.029,13.2964,4.59964,2469.89,2019-11-12T12:26:24Z
2019-11-12T10:29:00Z,42.805,6.029,13.2963,4.59968,2469.914,2019-11-12T12:29:28Z
2019-11-12T10:32:03Z,42.805,6.029,13.2961,4.59962,2469.947,2019-11-12T12:32:31Z
2019-11-12T10:35:07Z,42.805,6.029,13.2962,4.59963,2469.9,2019-11-12T12:35:34Z
2019-11-12T10:38:10Z,42.805,6.029,13.2966,4.59965,2469.89,2019-11-12T12:38:37Z
2019-11-12T10:41:13Z,42.805,6.029,13.2967,4.59962,2469.937,2019-11-12T12:41:41Z
2019-11-12T10:44:16Z,42.805,6.029,13.2964,4.59963,2469.914,2019-11-12T12:44:44Z
2019-11-12T10:47:20Z,42.805,6.029,13.2964,4.59964,2469.876,2019-11-12T12:47:47Z
2019-11-12T10:50:23Z,42.805,6.029,13.2967,4.59962,2469.853,2019-11-12T12:50:50Z
2019-11-12T10:53:26Z,42.805,6.029,13.2960,4.59962,2469.9,2019-11-12T12:53:54Z
2019-11-12T10:56:29Z,42.805,6.029,13.2967,4.59962,2469.914,2019-11-12T12:56:57Z
2019-11-12T10:59:32Z,42.805,6.029,13.2966,4.59968,2469.853,2019-11-12T13:00:00Z
2019-11-12T11:02:36Z,42.805,6.029,13.2966,4.59964,2469.914,2019-11-12T13:03:03Z
2019-11-12T11:05:39Z,42.805,6.029,13.2965,4.59963,2469.853,2019-11-12T13:06:06Z
2019-11-12T11:08:42Z,42.805,6.029,13.2963,4.59964,2469.876,2019-11-12T13:09:10Z
2019-11-12T11:11:45Z,42.805,6.029,13.2965,4.59963,2469.876,2019-11-12T13:12:13Z
2019-11-12T11:14:48Z,42.805,6.029,13.2963,4.59963,2469.853,2019-11-12T13:15:16Z
2019-11-12T11:17:52Z,42.805,6.029,13.2964,4.59963,2469.83,2019-11-12T13:18:19Z
2019-11-12T11:20:55Z,42.805,6.029,13.2961,4.59963,2469.89,2019-11-12T13:21:22Z
2019-11-12T11:23:58Z,42.805,6.029,13.2962,4.59964,2469.853,2019-11-12T13:24:26Z
2019-11-12T11:27:01Z,42.805,6.029,13.2967,4.59963,2469.89,2019-11-12T13:27:29Z
2019-11-12T11:30:05Z,42.805,6.029,13.2967,4.59962,2469.806,2019-11-12T13:30:32Z
2019-11-12T11:33:08Z,42.805,6.029,13.2963,4.59962,2469.853,2019-11-12T13:33:35Z
2019-11-12T11:36:11Z,42.805,6.029,13.2964,4.59965,2469.83,2019-11-12T13:36:39Z
2019-11-12T11:39:14Z,42.805,6.029,13.2964,4.59966,2469.844,2019-11-12T13:39:42Z
2019-11-12T11:42:18Z,42.805,6.029,13.2965,4.59963,2469.867,2019-11-12T13:42:45Z
2019-11-12T11:45:21Z,42.805,6.029,13.2964,4.59962,2469.83,2019-11-12T13:45:48Z
2019-11-12T11:48:24Z,42.805,6.029,13.2966,4.59963,2469.83,2019-11-12T13:48:52Z
2019-11-12T11:51:27Z,42.805,6.029,13.2968,4.59962,2469.853,2019-11-12T13:51:55Z
2019-11-12T11:54:31Z,42.805,6.029,13.2961,4.59965,2469.83,2019-11-12T13:54:58Z
2019-11-12T11:57:34Z,42.805,6.029,13.2964,4.59964,2469.853,2019-11-12T13:58:01Z
2019-11-12T12:00:37Z,42.805,6.029,13.2961,4.59964,2469.83,2019-11-12T14:01:04Z
2019-11-12T12:03:40Z,42.805,6.029,13.2967,4.59963,2469.853,2019-11-12T14:04:08Z
2019-11-12T12:06:43Z,42.805,6.029,13.2963,4.59966,2469.83,2019-11-12T14:07:11Z
2019-11-12T12:09:47Z,42.805,6.029,13.2963,4.59964,2469.867,2019-11-12T14:10:14Z
2019-11-12T12:12:50Z,42.805,6.029,13.2961,4.59963,2469.844,2019-11-12T14:13:17Z
2019-11-12T12:15:53Z,42.805,6.029,13.2965,4.59963,2469.806,2019-11-12T14:16:21Z
2019-11-12T12:18:56Z,42.805,6.029,13.2965,4.59963,2469.83,2019-11-12T14:19:24Z
2019-11-12T12:22:00Z,42.805,6.029,13.2961,4.59962,2469.867,2019-11-12T14:22:27Z
2019-11-12T12:25:03Z,42.805,6.029,13.2962,4.59963,2469.853,2019-11-12T14:25:30Z
2019-11-12T12:28:06Z,42.805,6.029,13.2964,4.59963,2469.83,2019-11-12T14:28:34Z
2019-11-12T12:31:09Z,42.805,6.029,13.2961,4.59964,2469.83,2019-11-12T14:31:37Z
2019-11-12T12:34:12Z,42.805,6.029,13.2966,4.59963,2469.821,2019-11-12T14:34:40Z
2019-11-12T12:37:16Z,42.805,6.029,13.2962,4.59964,2469.83,2019-11-12T14:37:43Z
2019-11-12T12:40:19Z,42.805,6.029,13.2961,4.59966,2469.83,2019-11-12T14:40:46Z
2019-11-12T12:43:22Z,42.805,6.029,13.2959,4.59964,2469.821,2019-11-12T14:43:50Z
2019-11-12T12:46:25Z,42.805,6.029,13.2963,4.59964,2469.83,2019-11-12T14:46:53Z
2019-11-12T12:49:29Z,42.805,6.029,13.2964,4.59966,2469.83,2019-11-12T14:49:56Z
2019-11-12T12:52:32Z,42.805,6.029,13.2963,4.59966,2469.83,2019-11-12T14:52:59Z
2019-11-12T12:55:35Z,42.805,6.029,13.2961,4.59961,2469.83,2019-11-12T14:56:03Z
2019-11-12T12:58:38Z,42.805,6.029,13.2965,4.59963,2469.806,2019-11-12T14:59:06Z
2019-11-12T13:01:42Z,42.805,6.029,13.2964,4.59973,2469.844,2019-11-12T15:02:09Z
2019-11-12T13:04:45Z,42.805,6.029,13.2966,4.59966,2469.83,2019-11-12T15:05:12Z
2019-11-12T13:07:48Z,42.805,6.029,13.2968,4.59964,2469.844,2019-11-12T15:08:16Z
2019-11-12T13:10:51Z,42.805,6.029,13.2964,4.59968,2469.844,2019-11-12T15:11:19Z
2019-11-12T13:13:54Z,42.805,6.029,13.2960,4.59964,2469.83,2019-11-12T15:14:22Z
2019-11-12T13:16:58Z,42.805,6.029,13.2967,4.59964,2469.83,2019-11-12T15:17:25Z
2019-11-12T13:20:01Z,42.805,6.029,13.2967,4.59966,2469.844,2019-11-12T15:20:28Z
2019-11-12T13:23:04Z,42.805,6.029,13.2966,4.59963,2469.853,2019-11-12T15:23:32Z
2019-11-12T13:26:07Z,42.805,6.029,13.2964,4.59963,2469.867,2019-11-12T15:26:35Z
2019-11-12T13:29:11Z,42.805,6.029,13.2964,4.59964,2469.821,2019-11-12T15:29:38Z
2019-11-12T13:32:14Z,42.805,6.029,13.2965,4.59966,2469.806,2019-11-12T15:32:41Z
2019-11-12T13:35:17Z,42.805,6.029,13.2961,4.59966,2469.783,2019-11-12T15:35:45Z
2019-11-12T13:38:20Z,42.805,6.029,13.2967,4.59963,2469.806,2019-11-12T15:38:48Z
2019-11-12T13:41:23Z,42.805,6.029,13.2965,4.59967,2469.821,2019-11-12T15:41:51Z
2019-11-12T13:44:27Z,42.805,6.029,13.2967,4.59965,2469.821,2019-11-12T15:44:54Z
2019-11-12T13:47:30Z,42.805,6.029,13.2968,4.59969,2469.783,2019-11-12T15:47:58Z
2019-11-12T13:50:33Z,42.805,6.029,13.2967,4.59965,2469.853,2019-11-12T15:51:01Z
2019-11-12T13:53:37Z,42.805,6.029,13.2964,4.59969,2469.797,2019-11-12T15:54:04Z
2019-11-12T13:56:40Z,42.805,6.029,13.2964,4.59971,2469.821,2019-11-12T15:57:08Z
2019-11-12T13:59:43Z,42.805,6.029,13.2964,4.59968,2469.844,2019-11-12T16:00:11Z
2019-11-12T14:02:46Z,42.805,6.029,13.2962,4.59964,2469.806,2019-11-12T16:03:14Z
2019-11-12T14:05:50Z,42.805,6.029,13.2964,4.59968,2469.844,2019-11-12T16:06:18Z
2019-11-12T14:08:53Z,42.805,6.029,13.2963,4.59966,2469.806,2019-11-12T16:09:21Z
2019-11-12T14:11:57Z,42.805,6.029,13.2962,4.59968,2469.806,2019-11-12T16:12:24Z
2019-11-12T14:15:00Z,42.805,6.029,13.2967,4.59969,2469.844,2019-11-12T16:15:27Z
2019-11-12T14:18:03Z,42.805,6.029,13.2966,4.59964,2469.83,2019-11-12T16:18:31Z
2019-11-12T14:21:06Z,42.805,6.029,13.2962,4.59966,2469.806,2019-11-12T16:21:34Z
2019-11-12T14:24:09Z,42.805,6.029,13.2964,4.59966,2469.83,2019-11-12T16:24:37Z
2019-11-12T14:27:13Z,42.805,6.029,13.2962,4.59964,2469.806,2019-11-12T16:27:40Z
2019-11-12T14:30:16Z,42.805,6.029,13.2965,4.59971,2469.83,2019-11-12T16:30:44Z
2019-11-12T14:33:19Z,42.805,6.029,13.2964,4.59970,2469.783,2019-11-12T16:33:47Z
2019-11-12T14:36:23Z,42.805,6.029,13.2968,4.59971,2469.844,2019-11-12T16:36:50Z
2019-11-12T14:39:26Z,42.805,6.029,13.2964,4.59972,2469.806,2019-11-12T16:39:53Z
2019-11-12T14:42:29Z,42.805,6.029,13.2964,4.59964,2469.821,2019-11-12T16:42:57Z
2019-11-12T14:45:32Z,42.805,6.029,13.2970,4.59979,2469.821,2019-11-12T16:46:00Z
2019-11-12T14:48:36Z,42.805,6.029,13.2965,4.59968,2469.821,2019-11-12T16:49:03Z
2019-11-12T14:51:39Z,42.805,6.029,13.2970,4.59966,2469.83,2019-11-12T16:52:06Z
2019-11-12T14:54:42Z,42.805,6.029,13.2962,4.59983,2469.844,2019-11-12T16:55:09Z
2019-11-12T14:57:45Z,42.805,6.029,13.2961,4.59969,2469.844,2019-11-12T16:58:13Z
2019-11-12T15:00:48Z,42.805,6.029,13.2964,4.59973,2469.806,2019-11-12T17:01:16Z
2019-11-12T15:03:52Z,42.805,6.029,13.2961,4.59974,2469.844,2019-11-12T17:04:19Z